"Datum/tijd (MEZT)";"RWsOS-RMM model stroom vectraal";"RWsOS-RMM model stroom vectraal";"verwachting, vectrale stroom cm/s"
2024-04-17 13:00;;36;36
2024-04-17 13:10;;37;37
2024-04-17 13:20;;37;37
2024-04-17 13:30;;37;37
2024-04-17 13:40;;37;37
2024-04-17 13:50;;36;36
2024-04-17 14:00;;35;35
2024-04-17 14:10;;34;34
2024-04-17 14:20;;32;32
2024-04-17 14:30;;29;29
2024-04-17 14:40;;27;27
2024-04-17 14:50;;24;24
2024-04-17 15:00;;22;22
2024-04-17 15:10;;19;19
2024-04-17 15:20;;17;17
2024-04-17 15:30;;15;15
2024-04-17 15:40;;12;12
2024-04-17 15:50;;10;10
2024-04-17 16:00;;8;8
2024-04-17 16:10;;6;6
2024-04-17 16:20;;5;5
2024-04-17 16:30;;3;3
2024-04-17 16:40;;2;2
2024-04-17 16:50;;0;0
2024-04-17 17:00;;-1;-1
2024-04-17 17:10;;-3;-3
2024-04-17 17:20;;-4;-4
2024-04-17 17:30;;-5;-5
2024-04-17 17:40;;-5;-5
2024-04-17 17:50;;-6;-6
2024-04-17 18:00;;-6;-6
2024-04-17 18:10;;-6;-6
2024-04-17 18:20;;-6;-6
2024-04-17 18:30;;-6;-6
2024-04-17 18:40;;-5;-5
2024-04-17 18:50;;-5;-5
2024-04-17 19:00;;-3;-4
2024-04-17 19:10;;-3;-4
2024-04-17 19:20;;-2;-3
2024-04-17 19:30;;-2;-2
2024-04-17 19:40;;-2;-2
2024-04-17 19:50;;-2;-1
2024-04-17 20:00;;-2;-1
2024-04-17 20:10;;-2;-1
2024-04-17 20:20;;-3;-1
2024-04-17 20:30;;-3;-1
2024-04-17 20:40;;-4;-1
2024-04-17 20:50;;-4;-1
2024-04-17 21:00;;-5;-5
2024-04-17 21:10;;-5;-5
2024-04-17 21:20;;-4;-4
2024-04-17 21:30;;-4;-4
2024-04-17 21:40;;-3;-3
2024-04-17 21:50;;-3;-3
2024-04-17 22:00;;-2;-2
2024-04-17 22:10;;-1;-1
2024-04-17 22:20;;0;0
2024-04-17 22:30;;0;0
2024-04-17 22:40;;1;1
2024-04-17 22:50;;2;2
2024-04-17 23:00;;3;3
2024-04-17 23:10;;3;3
2024-04-17 23:20;;4;4
2024-04-17 23:30;;5;5
2024-04-17 23:40;;6;6
2024-04-17 23:50;;7;7
2024-04-18 00:00;;8;8
2024-04-18 00:10;;9;9
2024-04-18 00:20;;11;11
2024-04-18 00:30;;12;12
2024-04-18 00:40;;14;14
2024-04-18 00:50;;15;15
2024-04-18 01:00;;17;17
2024-04-18 01:10;;18;18
2024-04-18 01:20;;19;19
2024-04-18 01:30;;20;20
2024-04-18 01:40;;21;21
2024-04-18 01:50;;22;22
2024-04-18 02:00;;22;22
2024-04-18 02:10;;22;22
2024-04-18 02:20;;23;22
2024-04-18 02:30;;22;22
2024-04-18 02:40;;22;22
2024-04-18 02:50;;22;22
2024-04-18 03:00;;21;21
2024-04-18 03:10;;20;20
2024-04-18 03:20;;19;19
2024-04-18 03:30;;17;17
2024-04-18 03:40;;15;15
2024-04-18 03:50;;13;13
2024-04-18 04:00;;11;11
2024-04-18 04:10;;9;9
2024-04-18 04:20;;7;7
2024-04-18 04:30;;5;5
2024-04-18 04:40;;3;3
2024-04-18 04:50;;1;1
2024-04-18 05:00;;-1;-1
2024-04-18 05:10;;-2;-2
2024-04-18 05:20;;-4;-4
2024-04-18 05:30;;-5;-5
2024-04-18 05:40;;-6;-6
2024-04-18 05:50;;-7;-7
2024-04-18 06:00;;-8;-8
2024-04-18 06:10;;-9;-8
2024-04-18 06:20;;-9;-9
2024-04-18 06:30;;-9;-9
2024-04-18 06:40;;-9;-9
2024-04-18 06:50;;-9;-9
2024-04-18 07:00;;-7;-9
2024-04-18 07:10;;-7;-8
2024-04-18 07:20;;-6;-8
2024-04-18 07:30;;-6;-7
2024-04-18 07:40;;-6;-7
2024-04-18 07:50;;-5;-6
2024-04-18 08:00;;-5;-6
2024-04-18 08:10;;-4;-5
2024-04-18 08:20;;-4;-5
2024-04-18 08:30;;-4;-5
2024-04-18 08:40;;-3;-4
2024-04-18 08:50;;-3;-4
2024-04-18 09:00;;-3;-4
2024-04-18 09:10;;-3;-4
2024-04-18 09:20;;-3;-4
2024-04-18 09:30;;-3;-3
2024-04-18 09:40;;-3;-3
2024-04-18 09:50;;-3;-3
2024-04-18 10:00;;-3;-3
2024-04-18 10:10;;-3;-3
2024-04-18 10:20;;-3;-3
2024-04-18 10:30;;-3;-3
2024-04-18 10:40;;-3;-3
2024-04-18 10:50;;-2;-2
2024-04-18 11:00;;-2;-2
2024-04-18 11:10;;-2;-2
2024-04-18 11:20;;-2;-2
2024-04-18 11:30;;-1;-1
2024-04-18 11:40;;0;0
2024-04-18 11:50;;1;1
2024-04-18 12:00;;3;3
2024-04-18 12:10;;5;5
2024-04-18 12:20;;8;8
2024-04-18 12:30;;12;12
2024-04-18 12:40;;15;15
2024-04-18 12:50;;18;18
2024-04-18 13:00;;21;20
2024-04-18 13:10;;24;23
2024-04-18 13:20;;26;24
2024-04-18 13:30;;27;26
2024-04-18 13:40;;29;27
2024-04-18 13:50;;30;28
2024-04-18 14:00;;31;29
2024-04-18 14:10;;31;30
2024-04-18 14:20;;32;30
2024-04-18 14:30;;32;30
2024-04-18 14:40;;32;31
2024-04-18 14:50;;31;30
2024-04-18 15:00;;31;30
2024-04-18 15:10;;30;29
2024-04-18 15:20;;28;28
2024-04-18 15:30;;27;27
2024-04-18 15:40;;25;25
2024-04-18 15:50;;24;24
2024-04-18 16:00;;22;22
2024-04-18 16:10;;20;21
2024-04-18 16:20;;19;19
2024-04-18 16:30;;17;18
2024-04-18 16:40;;16;16
2024-04-18 16:50;;14;14
2024-04-18 17:00;;12;12
2024-04-18 17:10;;10;10
2024-04-18 17:20;;8;8
2024-04-18 17:30;;6;7
2024-04-18 17:40;;4;5
2024-04-18 17:50;;2;3
2024-04-18 18:00;;1;2
2024-04-18 18:10;;-1;0
2024-04-18 18:20;;-2;-1
2024-04-18 18:30;;-3;-2
2024-04-18 18:40;;-4;-3
2024-04-18 18:50;;-5;-4
2024-04-18 19:00;;-5;-5
2024-04-18 19:10;;-6;-6
2024-04-18 19:20;;-6;-7
2024-04-18 19:30;;-7;-8
2024-04-18 19:40;;-8;-8
2024-04-18 19:50;;-8;-8
2024-04-18 20:00;;-8;-9
2024-04-18 20:10;;-9;-9
2024-04-18 20:20;;-9;-9
2024-04-18 20:30;;-9;-8
2024-04-18 20:40;;-9;-8
2024-04-18 20:50;;-9;-8
2024-04-18 21:00;;-8;-8
2024-04-18 21:10;;-8;-7
2024-04-18 21:20;;-8;-7
2024-04-18 21:30;;-8;-7
2024-04-18 21:40;;-8;-6
2024-04-18 21:50;;-8;-6
2024-04-18 22:00;;-8;-6
2024-04-18 22:10;;-8;-6
2024-04-18 22:20;;-8;-6
2024-04-18 22:30;;-7;-5
2024-04-18 22:40;;-7;-5
2024-04-18 22:50;;-7;-5
2024-04-18 23:00;;-6;-5
2024-04-18 23:10;;-6;-5
2024-04-18 23:20;;-6;-5
2024-04-18 23:30;;-6;-5
2024-04-18 23:40;;-6;-5
2024-04-18 23:50;;-6;-5
2024-04-19 00:00;;-5;-5
2024-04-19 00:10;;-5;-5
2024-04-19 00:20;;-5;-5
2024-04-19 00:30;;-5;-4
2024-04-19 00:40;;-5;-3
2024-04-19 00:50;;-4;-3
2024-04-19 01:00;;-4;-4
2024-04-19 01:10;;-3;-3
2024-04-19 01:20;;-1;-1
2024-04-19 01:30;;1;1
2024-04-19 01:40;;4;4
2024-04-19 01:50;;6;6
2024-04-19 02:00;;9;9
2024-04-19 02:10;;12;12
2024-04-19 02:20;;15;15
2024-04-19 02:30;;18;18
2024-04-19 02:40;;20;20
2024-04-19 02:50;;22;22
2024-04-19 03:00;;24;24
2024-04-19 03:10;;26;26
2024-04-19 03:20;;27;27
2024-04-19 03:30;;28;28
2024-04-19 03:40;;29;29
2024-04-19 03:50;;29;29
2024-04-19 04:00;;29;29
2024-04-19 04:10;;29;29
2024-04-19 04:20;;28;28
2024-04-19 04:30;;27;27
2024-04-19 04:40;;26;26
2024-04-19 04:50;;25;25
2024-04-19 05:00;;23;23
2024-04-19 05:10;;21;21
2024-04-19 05:20;;19;19
2024-04-19 05:30;;17;17
2024-04-19 05:40;;15;15
2024-04-19 05:50;;13;13
2024-04-19 06:00;;10;10
2024-04-19 06:10;;8;8
2024-04-19 06:20;;6;6
2024-04-19 06:30;;4;4
2024-04-19 06:40;;2;2
2024-04-19 06:50;;0;0
2024-04-19 07:00;;-1;-1
2024-04-19 07:10;;-3;-3
2024-04-19 07:20;;-4;-4
2024-04-19 07:30;;-5;-5
2024-04-19 07:40;;-6;-6
2024-04-19 07:50;;-6;-6
2024-04-19 08:00;;-7;-7
2024-04-19 08:10;;-7;-7
2024-04-19 08:20;;-7;-7
2024-04-19 08:30;;-7;-7
2024-04-19 08:40;;-7;-7
2024-04-19 08:50;;-6;-6
2024-04-19 09:00;;-6;-6
2024-04-19 09:10;;-5;-5
2024-04-19 09:20;;-4;-4
2024-04-19 09:30;;-3;-3
2024-04-19 09:40;;-3;-3
2024-04-19 09:50;;-2;-2
2024-04-19 10:00;;-1;-1
2024-04-19 10:10;;-1;-1
2024-04-19 10:20;;0;0
2024-04-19 10:30;;0;0
2024-04-19 10:40;;1;1
2024-04-19 10:50;;1;1
2024-04-19 11:00;;2;2
2024-04-19 11:10;;2;2
2024-04-19 11:20;;3;3
2024-04-19 11:30;;3;3
2024-04-19 11:40;;4;4
2024-04-19 11:50;;5;5
2024-04-19 12:00;;6;6
2024-04-19 12:10;;8;8
2024-04-19 12:20;;10;10
2024-04-19 12:30;;13;13
2024-04-19 12:40;;16;16
2024-04-19 12:50;;19;19
2024-04-19 13:00;;21;21
2024-04-19 13:10;;23;23
2024-04-19 13:20;;25;25
2024-04-19 13:30;;26;26
2024-04-19 13:40;;27;27
2024-04-19 13:50;;28;28
2024-04-19 14:00;;29;29
2024-04-19 14:10;;30;30
2024-04-19 14:20;;31;31
2024-04-19 14:30;;32;32
2024-04-19 14:40;;33;33
2024-04-19 14:50;;34;34
2024-04-19 15:00;;34;34
2024-04-19 15:10;;35;35
2024-04-19 15:20;;35;35
2024-04-19 15:30;;35;35
2024-04-19 15:40;;35;35
2024-04-19 15:50;;35;35
2024-04-19 16:00;;34;34
2024-04-19 16:10;;33;33
2024-04-19 16:20;;32;32
2024-04-19 16:30;;31;31
2024-04-19 16:40;;29;29
2024-04-19 16:50;;28;28
2024-04-19 17:00;;26;26
2024-04-19 17:10;;25;25
2024-04-19 17:20;;23;23
2024-04-19 17:30;;22;22
2024-04-19 17:40;;21;21
2024-04-19 17:50;;20;20
2024-04-19 18:00;;19;19
2024-04-19 18:10;;18;18
2024-04-19 18:20;;18;18
2024-04-19 18:30;;18;18
2024-04-19 18:40;;17;17
2024-04-19 18:50;;17;17
2024-04-19 19:00;;16;16
2024-04-19 19:10;;15;15
2024-04-19 19:20;;14;14
2024-04-19 19:30;;13;13
2024-04-19 19:40;;12;12
2024-04-19 19:50;;10;10
2024-04-19 20:00;;9;9
2024-04-19 20:10;;8;8
2024-04-19 20:20;;6;6
2024-04-19 20:30;;5;5
2024-04-19 20:40;;4;4
2024-04-19 20:50;;3;3
2024-04-19 21:00;;2;2
2024-04-19 21:10;;1;1
2024-04-19 21:20;;1;1
2024-04-19 21:30;;0;0
2024-04-19 21:40;;0;0
2024-04-19 21:50;;0;0
2024-04-19 22:00;;-1;0
2024-04-19 22:10;;-1;-1
2024-04-19 22:20;;-1;-1
2024-04-19 22:30;;-1;-1
2024-04-19 22:40;;0;0
2024-04-19 22:50;;0;0
2024-04-19 23:00;;0;1
2024-04-19 23:10;;1;1
2024-04-19 23:20;;2;2
2024-04-19 23:30;;2;2
2024-04-19 23:40;;3;3
2024-04-19 23:50;;4;4
2024-04-20 00:00;;4;4
2024-04-20 00:10;;5;5
2024-04-20 00:20;;5;5
2024-04-20 00:30;;6;6
2024-04-20 00:40;;6;6
2024-04-20 00:50;;6;6
2024-04-20 01:00;;7;7
2024-04-20 01:10;;7;7
2024-04-20 01:20;;7;7
2024-04-20 01:30;;8;8
2024-04-20 01:40;;8;8
2024-04-20 01:50;;9;9
2024-04-20 02:00;;11;11
2024-04-20 02:10;;12;12
2024-04-20 02:20;;13;13
2024-04-20 02:30;;15;15
2024-04-20 02:40;;16;16
2024-04-20 02:50;;17;17
2024-04-20 03:00;;18;18
2024-04-20 03:10;;19;19
2024-04-20 03:20;;20;20
2024-04-20 03:30;;20;20
2024-04-20 03:40;;21;21
2024-04-20 03:50;;22;22
2024-04-20 04:00;;22;22
2024-04-20 04:10;;22;22
2024-04-20 04:20;;22;22
2024-04-20 04:30;;22;22
2024-04-20 04:40;;22;22
2024-04-20 04:50;;21;21
2024-04-20 05:00;;21;21
2024-04-20 05:10;;20;20
2024-04-20 05:20;;19;19
2024-04-20 05:30;;18;18
2024-04-20 05:40;;17;17
2024-04-20 05:50;;15;15
2024-04-20 06:00;;13;13
2024-04-20 06:10;;10;10
2024-04-20 06:20;;8;8
2024-04-20 06:30;;6;6
2024-04-20 06:40;;4;4
2024-04-20 06:50;;2;2
2024-04-20 07:00;;0;0
2024-04-20 07:10;;-2;-2
2024-04-20 07:20;;-3;-3
2024-04-20 07:30;;-5;-5
2024-04-20 07:40;;-6;-6
2024-04-20 07:50;;-7;-7
2024-04-20 08:00;;-8;-8
2024-04-20 08:10;;-8;-8
2024-04-20 08:20;;-9;-9
2024-04-20 08:30;;-9;-9
2024-04-20 08:40;;-10;-10
2024-04-20 08:50;;-10;-10
2024-04-20 09:00;;-10;-10
2024-04-20 09:10;;-10;-10
2024-04-20 09:20;;-9;-9
2024-04-20 09:30;;-9;-9
2024-04-20 09:40;;-8;-8
2024-04-20 09:50;;-8;-8
2024-04-20 10:00;;-7;-7
2024-04-20 10:10;;-7;-7
2024-04-20 10:20;;-6;-6
2024-04-20 10:30;;-6;-6
2024-04-20 10:40;;-5;-5
2024-04-20 10:50;;-5;-5
2024-04-20 11:00;;-5;-4
2024-04-20 11:10;;-4;-4
2024-04-20 11:20;;-4;-4
2024-04-20 11:30;;-4;-4
2024-04-20 11:40;;-4;-4
2024-04-20 11:50;;-3;-3
2024-04-20 12:00;;-3;-3
2024-04-20 12:10;;-3;-3
2024-04-20 12:20;;-3;-3
2024-04-20 12:30;;-3;-3
2024-04-20 12:40;;-3;-3
2024-04-20 12:50;;-4;-4
2024-04-20 13:00;;-4;-4
2024-04-20 13:10;;-4;-4
2024-04-20 13:20;;-4;-4
2024-04-20 13:30;;-4;-4
2024-04-20 13:40;;-4;-4
2024-04-20 13:50;;-4;-4
2024-04-20 14:00;;-4;-4
2024-04-20 14:10;;-4;-4
2024-04-20 14:20;;-3;-3
2024-04-20 14:30;;-3;-3
2024-04-20 14:40;;-1;-1
2024-04-20 14:50;;1;1
2024-04-20 15:00;;4;4
2024-04-20 15:10;;8;8
2024-04-20 15:20;;11;11
2024-04-20 15:30;;14;14
2024-04-20 15:40;;16;16
2024-04-20 15:50;;18;18
2024-04-20 16:00;;20;20
2024-04-20 16:10;;21;21
2024-04-20 16:20;;22;22
2024-04-20 16:30;;23;23
2024-04-20 16:40;;23;23
2024-04-20 16:50;;24;24
2024-04-20 17:00;;24;24
2024-04-20 17:10;;24;24
2024-04-20 17:20;;24;24
2024-04-20 17:30;;24;24
2024-04-20 17:40;;24;23
2024-04-20 17:50;;23;23
2024-04-20 18:00;;22;22
2024-04-20 18:10;;21;21
2024-04-20 18:20;;19;19
2024-04-20 18:30;;17;17
2024-04-20 18:40;;15;15
2024-04-20 18:50;;12;12
2024-04-20 19:00;;10;10
2024-04-20 19:10;;7;7
2024-04-20 19:20;;5;5
2024-04-20 19:30;;3;3
2024-04-20 19:40;;1;1
2024-04-20 19:50;;0;0
2024-04-20 20:00;;-2;-2
2024-04-20 20:10;;-3;-3
2024-04-20 20:20;;-4;-4
2024-04-20 20:30;;-6;-5
2024-04-20 20:40;;-7;-7
2024-04-20 20:50;;-7;-7
2024-04-20 21:00;;-8;-8
2024-04-20 21:10;;-9;-9
2024-04-20 21:20;;-9;-9
2024-04-20 21:30;;-9;-9
2024-04-20 21:40;;-9;-9
2024-04-20 21:50;;-9;-9
2024-04-20 22:00;;-8;-8
2024-04-20 22:10;;-8;-8
2024-04-20 22:20;;-7;-7
2024-04-20 22:30;;-6;-6
2024-04-20 22:40;;-5;-5
2024-04-20 22:50;;-5;-5
2024-04-20 23:00;;-4;-4
2024-04-20 23:10;;-4;-4
2024-04-20 23:20;;-3;-3
2024-04-20 23:30;;-3;-3
2024-04-20 23:40;;-2;-2
2024-04-20 23:50;;-2;-2
2024-04-21 00:00;;-2;-2
2024-04-21 00:10;;-2;-2
2024-04-21 00:20;;-2;-2
2024-04-21 00:30;;-2;-2
2024-04-21 00:40;;-2;-2
2024-04-21 00:50;;-2;-2
2024-04-21 01:00;;-3;-3
2024-04-21 01:10;;-3;-3
2024-04-21 01:20;;-3;-3
2024-04-21 01:30;;-3;-3
2024-04-21 01:40;;-3;-3
2024-04-21 01:50;;-3;-3
2024-04-21 02:00;;-3;-3
2024-04-21 02:10;;-3;-3
2024-04-21 02:20;;-3;-3
2024-04-21 02:30;;-3;-3
2024-04-21 02:40;;-3;-3
2024-04-21 02:50;;-3;-3
2024-04-21 03:00;;-1;-1
2024-04-21 03:10;;0;0
2024-04-21 03:20;;3;3
2024-04-21 03:30;;6;6
2024-04-21 03:40;;9;9
2024-04-21 03:50;;13;13
2024-04-21 04:00;;16;16
2024-04-21 04:10;;18;18
2024-04-21 04:20;;20;20
2024-04-21 04:30;;21;21
2024-04-21 04:40;;22;22
2024-04-21 04:50;;23;23
2024-04-21 05:00;;23;23
2024-04-21 05:10;;24;24
2024-04-21 05:20;;24;24
2024-04-21 05:30;;24;24
2024-04-21 05:40;;24;24
2024-04-21 05:50;;24;24
2024-04-21 06:00;;24;24
2024-04-21 06:10;;24;23
2024-04-21 06:20;;22;22
2024-04-21 06:30;;20;20
2024-04-21 06:40;;18;18
2024-04-21 06:50;;16;16
2024-04-21 07:00;;14;14
2024-04-21 07:10;;11;11
2024-04-21 07:20;;9;9
2024-04-21 07:30;;7;7
2024-04-21 07:40;;4;4
2024-04-21 07:50;;2;2
2024-04-21 08:00;;0;0
2024-04-21 08:10;;-2;-2
2024-04-21 08:20;;-4;-4
2024-04-21 08:30;;-6;-6
2024-04-21 08:40;;-7;-7
2024-04-21 08:50;;-8;-8
2024-04-21 09:00;;-9;-9
2024-04-21 09:10;;-9;-9
2024-04-21 09:20;;-9;-9
2024-04-21 09:30;;-9;-9
2024-04-21 09:40;;-9;-9
2024-04-21 09:50;;-9;-9
2024-04-21 10:00;;-8;-8
2024-04-21 10:10;;-8;-8
2024-04-21 10:20;;-7;-7
2024-04-21 10:30;;-6;-6
2024-04-21 10:40;;-6;-6
2024-04-21 10:50;;-5;-5
2024-04-21 11:00;;-5;-5
2024-04-21 11:10;;-4;-4
2024-04-21 11:20;;-3;-3
2024-04-21 11:30;;-3;-3
2024-04-21 11:40;;-3;-3
2024-04-21 11:50;;-2;-2
2024-04-21 12:00;;-2;-2
2024-04-21 12:10;;-2;-2
2024-04-21 12:20;;-2;-2
2024-04-21 12:30;;-2;-2
2024-04-21 12:40;;-1;-1
2024-04-21 12:50;;-1;-1
2024-04-21 13:00;;-1;-1
2024-04-21 13:10;;-2;-2
2024-04-21 13:20;;-2;-2
2024-04-21 13:30;;-2;-2
2024-04-21 13:40;;-2;-2
2024-04-21 13:50;;-2;-2
2024-04-21 14:00;;-2;-2
2024-04-21 14:10;;-2;-2
2024-04-21 14:20;;-2;-2
2024-04-21 14:30;;-2;-2
2024-04-21 14:40;;-2;-2
2024-04-21 14:50;;-1;-1
2024-04-21 15:00;;0;0
2024-04-21 15:10;;3;3
2024-04-21 15:20;;7;7
2024-04-21 15:30;;11;11
2024-04-21 15:40;;15;15
2024-04-21 15:50;;19;19
2024-04-21 16:00;;22;22
2024-04-21 16:10;;24;24
2024-04-21 16:20;;26;26
2024-04-21 16:30;;28;28
2024-04-21 16:40;;29;29
2024-04-21 16:50;;30;30
2024-04-21 17:00;;30;30
2024-04-21 17:10;;31;31
2024-04-21 17:20;;32;32
2024-04-21 17:30;;32;32
2024-04-21 17:40;;32;32
2024-04-21 17:50;;32;32
2024-04-21 18:00;;32;32
2024-04-21 18:10;;31;31
2024-04-21 18:20;;30;30
2024-04-21 18:30;;28;28
2024-04-21 18:40;;27;27
2024-04-21 18:50;;25;25
2024-04-21 19:00;;23;23
2024-04-21 19:10;;20;20
2024-04-21 19:20;;17;17
2024-04-21 19:30;;14;14
2024-04-21 19:40;;11;11
2024-04-21 19:50;;9;9
2024-04-21 20:00;;6;6
2024-04-21 20:10;;4;4
2024-04-21 20:20;;2;2
2024-04-21 20:30;;0;0
2024-04-21 20:40;;-1;-1
2024-04-21 20:50;;-2;-2
2024-04-21 21:00;;-4;-4
2024-04-21 21:10;;-5;-5
2024-04-21 21:20;;-6;-6
2024-04-21 21:30;;-7;-7
2024-04-21 21:40;;-7;-7
2024-04-21 21:50;;-8;-8
2024-04-21 22:00;;-8;-8
2024-04-21 22:10;;-8;-8
2024-04-21 22:20;;-8;-8
2024-04-21 22:30;;-8;-8
2024-04-21 22:40;;-7;-7
2024-04-21 22:50;;-7;-7
2024-04-21 23:00;;-6;-6
2024-04-21 23:10;;-5;-5
2024-04-21 23:20;;-5;-5
2024-04-21 23:30;;-4;-4
2024-04-21 23:40;;-3;-3
2024-04-21 23:50;;-3;-3
2024-04-22 00:00;;-2;-2
2024-04-22 00:10;;-2;-2
2024-04-22 00:20;;-2;-2
2024-04-22 00:30;;-1;-1
2024-04-22 00:40;;-1;-1
2024-04-22 00:50;;-1;-1
2024-04-22 01:00;;-1;-1
2024-04-22 01:10;;-1;-1
2024-04-22 01:20;;-1;-1
2024-04-22 01:30;;-1;-1
2024-04-22 01:40;;-1;-1
2024-04-22 01:50;;-1;-1
2024-04-22 02:00;;-2;-2
2024-04-22 02:10;;-2;-2
2024-04-22 02:20;;-2;-2
2024-04-22 02:30;;-2;-2
2024-04-22 02:40;;-2;-2
2024-04-22 02:50;;-2;-2
2024-04-22 03:00;;-2;-2
2024-04-22 03:10;;-2;-2
2024-04-22 03:20;;-1;-1
2024-04-22 03:30;;0;0
2024-04-22 03:40;;3;3
2024-04-22 03:50;;6;6
2024-04-22 04:00;;10;10
2024-04-22 04:10;;14;14
2024-04-22 04:20;;18;18
2024-04-22 04:30;;21;21
2024-04-22 04:40;;24;24
2024-04-22 04:50;;25;26
2024-04-22 05:00;;27;27
2024-04-22 05:10;;28;28
2024-04-22 05:20;;29;29
2024-04-22 05:30;;29;29
2024-04-22 05:40;;29;29
2024-04-22 05:50;;30;30
2024-04-22 06:00;;30;30
2024-04-22 06:10;;30;30
2024-04-22 06:20;;30;30
2024-04-22 06:30;;29;29
2024-04-22 06:40;;29;29
2024-04-22 06:50;;28;28
2024-04-22 07:00;;26;26
2024-04-22 07:10;;25;25
2024-04-22 07:20;;22;22
2024-04-22 07:30;;19;19
2024-04-22 07:40;;16;16
2024-04-22 07:50;;13;13
2024-04-22 08:00;;10;10
2024-04-22 08:10;;8;8
2024-04-22 08:20;;5;5
2024-04-22 08:30;;3;3
2024-04-22 08:40;;1;1
2024-04-22 08:50;;0;0
2024-04-22 09:00;;-1;-1
2024-04-22 09:10;;-3;-3
2024-04-22 09:20;;-4;-4
2024-04-22 09:30;;-5;-5
2024-04-22 09:40;;-5;-5
2024-04-22 09:50;;-6;-6
2024-04-22 10:00;;-6;-6
2024-04-22 10:10;;-6;-6
2024-04-22 10:20;;-6;-6
2024-04-22 10:30;;-6;-6
2024-04-22 10:40;;-6;-6
2024-04-22 10:50;;-5;-5
2024-04-22 11:00;;-5;-5
2024-04-22 11:10;;-4;-4
2024-04-22 11:20;;-3;-3
2024-04-22 11:30;;-2;-2
2024-04-22 11:40;;-2;-2
2024-04-22 11:50;;-1;-1
2024-04-22 12:00;;0;0
2024-04-22 12:10;;0;0
2024-04-22 12:20;;1;1
2024-04-22 12:30;;1;1
2024-04-22 12:40;;1;1
2024-04-22 12:50;;1;1
2024-04-22 13:00;;2;2
2024-04-22 13:10;;2;2
2024-04-22 13:20;;2;2
2024-04-22 13:30;;2;2
2024-04-22 13:40;;2;2
2024-04-22 13:50;;2;2
2024-04-22 14:00;;2;2
2024-04-22 14:10;;2;2
2024-04-22 14:20;;1;1
2024-04-22 14:30;;1;1
2024-04-22 14:40;;1;1
2024-04-22 14:50;;1;1
2024-04-22 15:00;;1;1
2024-04-22 15:10;;1;1
2024-04-22 15:20;;2;2
2024-04-22 15:30;;4;4
2024-04-22 15:40;;8;8
2024-04-22 15:50;;12;12
2024-04-22 16:00;;16;16
2024-04-22 16:10;;20;20
2024-04-22 16:20;;24;24
2024-04-22 16:30;;27;27
2024-04-22 16:40;;29;29
2024-04-22 16:50;;31;31
2024-04-22 17:00;;33;33
2024-04-22 17:10;;34;34
2024-04-22 17:20;;35;35
2024-04-22 17:30;;35;35
2024-04-22 17:40;;36;36
2024-04-22 17:50;;36;36
2024-04-22 18:00;;36;36
2024-04-22 18:10;;36;36
2024-04-22 18:20;;36;36
2024-04-22 18:30;;35;35
2024-04-22 18:40;;35;35
2024-04-22 18:50;;33;33
2024-04-22 19:00;;32;32
2024-04-22 19:10;;30;30
2024-04-22 19:20;;28;28
2024-04-22 19:30;;26;26
2024-04-22 19:40;;24;24
2024-04-22 19:50;;21;21
2024-04-22 20:00;;19;19
2024-04-22 20:10;;16;16
2024-04-22 20:20;;14;14
2024-04-22 20:30;;11;11
2024-04-22 20:40;;9;9
2024-04-22 20:50;;7;7
2024-04-22 21:00;;5;5
2024-04-22 21:10;;4;4
2024-04-22 21:20;;2;2
2024-04-22 21:30;;1;1
2024-04-22 21:40;;-1;-1
2024-04-22 21:50;;-2;-2
2024-04-22 22:00;;-3;-3
2024-04-22 22:10;;-4;-4
2024-04-22 22:20;;-5;-5
2024-04-22 22:30;;-5;-5
2024-04-22 22:40;;-6;-6
2024-04-22 22:50;;-6;-6
2024-04-22 23:00;;-6;-6
2024-04-22 23:10;;-5;-5
2024-04-22 23:20;;-5;-5
2024-04-22 23:30;;-4;-4
2024-04-22 23:40;;-4;-4
2024-04-22 23:50;;-3;-3
2024-04-23 00:00;;-2;-2
2024-04-23 00:10;;-2;-2
2024-04-23 00:20;;-1;-1
2024-04-23 00:30;;0;0
2024-04-23 00:40;;0;0
2024-04-23 00:50;;1;1
2024-04-23 01:00;;1;1
2024-04-23 01:10;;2;2
2024-04-23 01:20;;2;2
2024-04-23 01:30;;2;2
2024-04-23 01:40;;2;2
2024-04-23 01:50;;2;2
2024-04-23 02:00;;2;2
2024-04-23 02:10;;2;2
2024-04-23 02:20;;2;2
2024-04-23 02:30;;2;2
2024-04-23 02:40;;2;2
2024-04-23 02:50;;2;2
2024-04-23 03:00;;2;2
2024-04-23 03:10;;1;1
2024-04-23 03:20;;1;1
2024-04-23 03:30;;1;1
2024-04-23 03:40;;1;1
2024-04-23 03:50;;2;1
2024-04-23 04:00;;3;3
2024-04-23 04:10;;7;7
2024-04-23 04:20;;11;11
2024-04-23 04:30;;15;15
2024-04-23 04:40;;19;19
2024-04-23 04:50;;23;23
2024-04-23 05:00;;26;26
2024-04-23 05:10;;28;28
2024-04-23 05:20;;30;30
2024-04-23 05:30;;31;31
2024-04-23 05:40;;32;32
2024-04-23 05:50;;32;33
2024-04-23 06:00;;33;33
2024-04-23 06:10;;33;33
2024-04-23 06:20;;33;33
2024-04-23 06:30;;33;33
2024-04-23 06:40;;33;33
2024-04-23 06:50;;33;33
2024-04-23 07:00;;32;32
2024-04-23 07:10;;31;31
2024-04-23 07:20;;30;30
2024-04-23 07:30;;29;29
2024-04-23 07:40;;28;28
2024-04-23 07:50;;26;26
2024-04-23 08:00;;24;24
2024-04-23 08:10;;21;21
2024-04-23 08:20;;18;18
2024-04-23 08:30;;15;15
2024-04-23 08:40;;13;13
2024-04-23 08:50;;10;10
2024-04-23 09:00;;8;8
2024-04-23 09:10;;7;7
2024-04-23 09:20;;5;5
2024-04-23 09:30;;4;4
2024-04-23 09:40;;2;2
2024-04-23 09:50;;1;1
2024-04-23 10:00;;0;0
2024-04-23 10:10;;-1;-1
2024-04-23 10:20;;-2;-2
2024-04-23 10:30;;-2;-2
2024-04-23 10:40;;-3;-3
2024-04-23 10:50;;-3;-3
2024-04-23 11:00;;-3;-3
2024-04-23 11:10;;-3;-3
2024-04-23 11:20;;-2;-2
2024-04-23 11:30;;-2;-2
2024-04-23 11:40;;-1;-1
2024-04-23 11:50;;0;0
2024-04-23 12:00;;0;0
2024-04-23 12:10;;1;1
2024-04-23 12:20;;2;2
2024-04-23 12:30;;2;2
2024-04-23 12:40;;3;3
2024-04-23 12:50;;3;3
2024-04-23 13:00;;4;4
2024-04-23 13:10;;4;4
2024-04-23 13:20;;4;4
2024-04-23 13:30;;5;5
2024-04-23 13:40;;5;5
2024-04-23 13:50;;5;5
2024-04-23 14:00;;5;5
2024-04-23 14:10;;5;5
2024-04-23 14:20;;5;5
2024-04-23 14:30;;5;5
2024-04-23 14:40;;5;5
2024-04-23 14:50;;5;5
2024-04-23 15:00;;4;4
2024-04-23 15:10;;4;4
2024-04-23 15:20;;4;4
2024-04-23 15:30;;3;3
2024-04-23 15:40;;3;3
2024-04-23 15:50;;4;4
2024-04-23 16:00;;6;6
2024-04-23 16:10;;9;9
2024-04-23 16:20;;13;13
2024-04-23 16:30;;18;18
2024-04-23 16:40;;22;22
2024-04-23 16:50;;25;26
2024-04-23 17:00;;28;28
2024-04-23 17:10;;31;31
2024-04-23 17:20;;33;33
2024-04-23 17:30;;34;34
2024-04-23 17:40;;36;36
2024-04-23 17:50;;37;37
2024-04-23 18:00;;37;37
2024-04-23 18:10;;38;38
2024-04-23 18:20;;38;38
2024-04-23 18:30;;38;38
2024-04-23 18:40;;38;38
2024-04-23 18:50;;38;38
2024-04-23 19:00;;37;37
2024-04-23 19:10;;36;36
2024-04-23 19:20;;35;35
2024-04-23 19:30;;33;33
2024-04-23 19:40;;31;31
2024-04-23 19:50;;29;29
2024-04-23 20:00;;27;27
2024-04-23 20:10;;25;25
2024-04-23 20:20;;24;24
2024-04-23 20:30;;22;22
2024-04-23 20:40;;20;20
2024-04-23 20:50;;17;17
2024-04-23 21:00;;15;15
2024-04-23 21:10;;13;13
2024-04-23 21:20;;11;11
2024-04-23 21:30;;9;9
2024-04-23 21:40;;8;8
2024-04-23 21:50;;6;6
2024-04-23 22:00;;5;5
2024-04-23 22:10;;4;4
2024-04-23 22:20;;2;2
2024-04-23 22:30;;1;1
2024-04-23 22:40;;0;0
2024-04-23 22:50;;-1;-1
2024-04-23 23:00;;-1;-1
2024-04-23 23:10;;-2;-2
2024-04-23 23:20;;-2;-2
2024-04-23 23:30;;-2;-2
2024-04-23 23:40;;-2;-2
2024-04-23 23:50;;-1;-1
2024-04-24 00:00;;-1;-1
2024-04-24 00:10;;0;0
2024-04-24 00:20;;0;0
2024-04-24 00:30;;1;1
2024-04-24 00:40;;2;2
2024-04-24 00:50;;2;2
2024-04-24 01:00;;3;3
2024-04-24 01:10;;3;3
2024-04-24 01:20;;4;4
2024-04-24 01:30;;4;4
2024-04-24 01:40;;5;5
2024-04-24 01:50;;5;5
2024-04-24 02:00;;6;6
2024-04-24 02:10;;6;6
2024-04-24 02:20;;6;6
2024-04-24 02:30;;6;6
2024-04-24 02:40;;6;6
2024-04-24 02:50;;6;6
2024-04-24 03:00;;6;5
2024-04-24 03:10;;5;5
2024-04-24 03:20;;5;5
2024-04-24 03:30;;5;5
2024-04-24 03:40;;4;4
2024-04-24 03:50;;4;4
2024-04-24 04:00;;3;3
2024-04-24 04:10;;3;3
2024-04-24 04:20;;4;4
2024-04-24 04:30;;7;6
2024-04-24 04:40;;10;10
2024-04-24 04:50;;14;14
2024-04-24 05:00;;19;19
2024-04-24 05:10;;23;23
2024-04-24 05:20;;26;26
2024-04-24 05:30;;29;29
2024-04-24 05:40;;31;31
2024-04-24 05:50;;32;32
2024-04-24 06:00;;34;34
2024-04-24 06:10;;35;35
2024-04-24 06:20;;35;35
2024-04-24 06:30;;36;36
2024-04-24 06:40;;36;36
2024-04-24 06:50;;36;36
2024-04-24 07:00;;36;36
2024-04-24 07:10;;35;35